Time,TemperatureF,DewpointF,PressureIn,WindDirection,WindDirectionDegrees,WindSpeedMPH,WindSpeedGustMPH,Humidity,HourlyPrecipIn,Conditions,Clouds,dailyrainin,SoftwareType,DateUTC
2013-08-24 00:13:00,85.0,69.0,30.01,West,281,0.0,-999.0,58,-99.99,,,-99.99,,2013-08-24 05:13:00,
2013-08-24 00:23:00,85.0,69.0,30.01,West,281,0.0,-999.0,59,-99.99,,,-99.99,,2013-08-24 05:23:00,
2013-08-24 00:43:00,84.0,68.0,30.02,West,281,0.0,-999.0,59,-99.99,,,-99.99,,2013-08-24 05:43:00,
2013-08-24 00:53:00,84.0,69.0,30.01,West,281,0.0,-999.0,60,-99.99,,,-99.99,,2013-08-24 05:53:00,
2013-08-24 01:12:00,84.0,69.0,30.02,West,281,0.0,-999.0,61,-99.99,,,-99.99,,2013-08-24 06:12:00,
2013-08-24 01:22:00,84.0,69.0,30.02,West,281,0.0,-999.0,61,-99.99,,,-99.99,,2013-08-24 06:22:00,
2013-08-24 01:42:00,83.0,69.0,30.02,West,281,0.0,-999.0,62,-99.99,,,-99.99,,2013-08-24 06:42:00,
2013-08-24 01:52:00,83.0,69.0,30.02,West,281,0.0,-999.0,63,-99.99,,,-99.99,,2013-08-24 06:52:00,
2013-08-24 02:12:00,83.0,70.0,30.02,West,281,0.0,-999.0,64,-99.99,,,-99.99,,2013-08-24 07:12:00,
2013-08-24 02:22:00,83.0,70.0,30.02,West,281,0.0,-999.0,65,-99.99,,,-99.99,,2013-08-24 07:22:00,
2013-08-24 02:43:00,82.0,69.0,30.02,West,281,0.0,-999.0,65,-99.99,,,-99.99,,2013-08-24 07:43:00,
2013-08-24 02:53:00,82.0,69.0,30.02,West,281,0.0,-999.0,66,-99.99,,,-99.99,,2013-08-24 07:53:00,
2013-08-24 03:12:00,82.0,70.0,30.02,West,281,0.0,-999.0,67,-99.99,,,-99.99,,2013-08-24 08:12:00,
2013-08-24 03:22:00,82.0,70.0,30.02,West,281,0.0,-999.0,67,-99.99,,,-99.99,,2013-08-24 08:22:00,
2013-08-24 03:52:00,81.0,69.0,30.02,West,281,0.0,-999.0,68,-99.99,,,-99.99,,2013-08-24 08:52:00,
2013-08-24 04:11:00,81.0,70.0,30.02,West,281,0.0,-999.0,69,-99.99,,,-99.99,,2013-08-24 09:11:00,
2013-08-24 04:22:00,81.0,70.0,30.02,West,281,0.0,-999.0,69,-99.99,,,-99.99,,2013-08-24 09:22:00,
2013-08-24 04:44:00,81.0,70.0,30.02,West,281,0.0,-999.0,70,-99.99,,,-99.99,,2013-08-24 09:44:00,
2013-08-24 04:53:00,81.0,70.0,30.03,West,281,0.0,-999.0,70,-99.99,,,-99.99,,2013-08-24 09:53:00,
2013-08-24 05:13:00,80.0,70.0,30.03,West,281,0.0,-999.0,71,-99.99,,,-99.99,,2013-08-24 10:13:00,
2013-08-24 05:23:00,80.0,70.0,30.03,West,281,0.0,-999.0,71,-99.99,,,-99.99,,2013-08-24 10:23:00,
2013-08-24 05:42:00,80.0,70.0,30.03,West,281,0.0,-999.0,72,-99.99,,,-99.99,,2013-08-24 10:42:00,
2013-08-24 05:53:00,80.0,70.0,30.03,West,281,0.0,-999.0,72,-99.99,,,-99.99,,2013-08-24 10:53:00,
2013-08-24 06:12:00,79.0,70.0,30.04,West,281,0.0,-999.0,73,-99.99,,,-99.99,,2013-08-24 11:12:00,
2013-08-24 06:22:00,79.0,70.0,30.04,West,281,0.0,-999.0,73,-99.99,,,-99.99,,2013-08-24 11:22:00,
2013-08-24 06:52:00,79.0,70.0,30.05,West,281,0.0,-999.0,74,-99.99,,,-99.99,,2013-08-24 11:52:00,
2013-08-24 07:12:00,78.0,69.0,30.06,West,281,0.0,-999.0,75,-99.99,,,-99.99,,2013-08-24 12:12:00,
2013-08-24 07:21:00,78.0,69.0,30.07,West,281,0.0,-999.0,75,-99.99,,,-99.99,,2013-08-24 12:21:00,
2013-08-24 07:42:00,78.0,70.0,30.07,West,281,0.0,-999.0,76,-99.99,,,-99.99,,2013-08-24 12:42:00,
2013-08-24 07:52:00,78.0,70.0,30.07,West,281,0.0,-999.0,76,-99.99,,,-99.99,,2013-08-24 12:52:00,
2013-08-24 08:11:00,78.0,70.0,30.08,West,281,0.0,-999.0,77,-99.99,,,-99.99,,2013-08-24 13:11:00,
2013-08-24 08:22:00,79.0,71.0,30.08,West,281,0.0,-999.0,77,-99.99,,,-99.99,,2013-08-24 13:22:00,
2013-08-24 08:52:00,80.0,72.0,30.09,West,281,0.0,-999.0,78,-99.99,,,-99.99,,2013-08-24 13:52:00,
2013-08-24 09:11:00,81.0,73.0,30.09,West,281,0.0,-999.0,77,-99.99,,,-99.99,,2013-08-24 14:11:00,
2013-08-24 09:22:00,82.0,74.0,30.09,West,281,0.0,-999.0,77,-99.99,,,-99.99,,2013-08-24 14:22:00,
2013-08-24 09:42:00,82.0,74.0,30.10,West,281,0.0,-999.0,76,-99.99,,,-99.99,,2013-08-24 14:42:00,
2013-08-24 09:52:00,83.0,74.0,30.10,West,281,0.0,-999.0,75,-99.99,,,-99.99,,2013-08-24 14:52:00,
2013-08-24 10:12:00,84.0,75.0,30.10,West,281,0.0,-999.0,74,-99.99,,,-99.99,,2013-08-24 15:12:00,
2013-08-24 10:22:00,85.0,75.0,30.10,West,281,0.0,-999.0,73,-99.99,,,-99.99,,2013-08-24 15:22:00,
2013-08-24 10:45:00,86.0,76.0,30.11,West,281,1.0,-999.0,72,-99.99,,,-99.99,,2013-08-24 15:45:00,
2013-08-24 10:54:00,86.0,75.0,30.11,West,281,2.0,-999.0,71,-99.99,,,-99.99,,2013-08-24 15:54:00,
2013-08-24 11:13:00,86.0,75.0,30.11,West,281,2.0,-999.0,71,-99.99,,,-99.99,,2013-08-24 16:13:00,
2013-08-24 11:23:00,87.0,76.0,30.11,West,281,2.0,-999.0,71,-99.99,,,-99.99,,2013-08-24 16:23:00,
2013-08-24 11:53:00,89.0,77.0,30.11,West,281,2.0,-999.0,68,-99.99,,,-99.99,,2013-08-24 16:53:00,
2013-08-24 12:12:00,89.0,76.0,30.11,West,281,1.0,-999.0,66,-99.99,,,-99.99,,2013-08-24 17:12:00,
2013-08-24 12:23:00,89.0,76.0,30.10,West,281,1.0,-999.0,66,-99.99,,,-99.99,,2013-08-24 17:23:00,
2013-08-24 12:42:00,90.0,77.0,30.10,WNW,282,0.0,-999.0,65,-99.99,,,-99.99,,2013-08-24 17:42:00,
2013-08-24 12:52:00,91.0,77.0,30.09,WNW,282,0.0,-999.0,63,-99.99,,,-99.99,,2013-08-24 17:52:00,
2013-08-24 13:13:00,92.0,76.0,30.08,WNW,282,1.0,-999.0,60,-99.99,,,-99.99,,2013-08-24 18:13:00,
2013-08-24 13:42:00,93.0,75.0,30.07,WNW,282,1.0,-999.0,57,-99.99,,,-99.99,,2013-08-24 18:42:00,
2013-08-24 13:53:00,94.0,75.0,30.07,WNW,282,1.0,-999.0,54,-99.99,,,-99.99,,2013-08-24 18:53:00,
2013-08-24 14:21:00,96.0,75.0,30.06,WNW,283,1.0,-999.0,51,-99.99,,,-99.99,,2013-08-24 19:21:00,
2013-08-24 14:52:00,96.0,74.0,30.05,WNW,283,0.0,-999.0,49,-99.99,,,-99.99,,2013-08-24 19:52:00,
2013-08-24 15:11:00,96.0,73.0,30.05,WNW,283,0.0,-999.0,48,-99.99,,,-99.99,,2013-08-24 20:11:00,
2013-08-24 15:22:00,97.0,73.0,30.04,WNW,283,0.0,-999.0,47,-99.99,,,-99.99,,2013-08-24 20:22:00,
2013-08-24 15:52:00,98.0,72.0,30.03,WNW,283,1.0,-999.0,44,-99.99,,,-99.99,,2013-08-24 20:52:00,
2013-08-24 16:22:00,97.0,71.0,30.02,WNW,283,2.0,-999.0,44,-99.99,,,-99.99,,2013-08-24 21:22:00,
2013-08-24 16:55:00,97.0,71.0,30.01,WNW,282,0.0,-999.0,43,-99.99,,,-99.99,,2013-08-24 21:55:00,
2013-08-24 17:14:00,98.0,71.0,30.01,WNW,283,0.0,-999.0,42,-99.99,,,-99.99,,2013-08-24 22:14:00,
2013-08-24 17:24:00,98.0,72.0,30.01,WNW,283,1.0,-999.0,43,-99.99,,,-99.99,,2013-08-24 22:24:00,
2013-08-24 17:53:00,90.0,71.0,30.02,West,281,5.0,-999.0,54,-99.99,,,-99.99,,2013-08-24 22:53:00,
2013-08-24 18:12:00,90.0,72.0,30.02,West,281,3.0,-999.0,56,-99.99,,,-99.99,,2013-08-24 23:12:00,
2013-08-24 19:12:00,93.0,72.0,30.01,WNW,282,0.0,-999.0,51,-99.99,,,-99.99,,2013-08-25 00:12:00,
2013-08-24 20:42:00,90.0,72.0,30.02,West,281,0.0,-999.0,56,-99.99,,,-99.99,,2013-08-25 01:42:00,
2013-08-24 20:52:00,90.0,72.0,30.02,West,281,0.0,-999.0,55,-99.99,,,-99.99,,2013-08-25 01:52:00,
2013-08-24 21:11:00,90.0,72.0,30.03,West,281,0.0,-999.0,56,-99.99,,,-99.99,,2013-08-25 02:11:00,
2013-08-24 21:22:00,89.0,72.0,30.04,West,281,0.0,-999.0,57,-99.99,,,-99.99,,2013-08-25 02:22:00,
2013-08-24 21:42:00,89.0,72.0,30.05,West,281,0.0,-999.0,57,-99.99,,,-99.99,,2013-08-25 02:42:00,
2013-08-24 21:52:00,88.0,71.0,30.05,West,281,0.0,-999.0,57,-99.99,,,-99.99,,2013-08-25 02:52:00,
2013-08-24 22:23:00,87.0,70.0,30.06,West,281,0.0,-999.0,58,-99.99,,,-99.99,,2013-08-25 03:23:00,
2013-08-24 22:44:00,87.0,70.0,30.07,West,281,0.0,-999.0,58,-99.99,,,-99.99,,2013-08-25 03:44:00,
2013-08-24 22:54:00,87.0,70.0,30.07,West,281,0.0,-999.0,58,-99.99,,,-99.99,,2013-08-25 03:54:00,
2013-08-24 23:02:00,-999.0,-99.9,30.07,West,281,0.0,-999.0,-999,-99.99,,,-99.99,,2013-08-25 04:02:00,
2013-08-24 23:14:00,87.0,71.0,30.07,West,281,0.0,-999.0,59,-99.99,,,-99.99,,2013-08-25 04:14:00,
2013-08-24 23:25:00,86.0,70.0,30.08,West,281,0.0,-999.0,59,-99.99,,,-99.99,,2013-08-25 04:25:00,
2013-08-24 23:43:00,86.0,70.0,30.08,West,281,0.0,-999.0,60,-99.99,,,-99.99,,2013-08-25 04:43:00,
2013-08-24 23:54:00,86.0,71.0,30.08,West,281,0.0,-999.0,61,-99.99,,,-99.99,,2013-08-25 04:54:00,